Location: Banff
(51.1667°N, 115.5667°W)
Time: 15:08:10
(UTC+00:00)

Altair - Pass Details

Date: 30 November 2020
Orbit: 1501 x 1682 km, 47.2° (Epoch: 15 January)

Event Time Altitude Azimuth Distance (km) Brightness Sun altitude
Rises 02:03:10 0° 186° (S) 4,743 10.2 -21.7°
Reaches altitude 10° 02:07:30 10° 169° (S) 3,730 9.5 -22.4°
Enters shadow 02:13:00 18° 132° (SE) 3,088 8.7 -23.2°
